sat.trackr.live / text

‹ back to catalog

STARLINK-34789

NORAD 65022 · 2025-161H

PAYLOAD ACTIVE UNKNOWN

§ Identity

Operator
Country
US
Launch date
2025-07-30
Launch site
AFWTR
Launch vehicle
Mass (kg)
RCS (m²)

Purposes: comms

External: N2YO · Heavens-Above · Gunter

§ Orbital elements

Epoch: 2026-05-25T03:40:53.315040Z

Period
94.10 min
Inclination
53.1611°
Eccentricity
0.0001142
Mean motion
15.30208842 rev/d
Perigee alt
474.4 km
Apogee alt
476.0 km
Semi-major
6,853.3 km
B*
4.4159e-4
RAAN
299.2572°
Arg perigee
107.2855°
Mean anomaly
252.8271°
Rev number
4,702

§ Raw data

STARLINK-347891 65022U 25161H   26145.15339485  .00012745  00000+0  44159-3 0  99902 65022  53.1611 299.2572 0001142 107.2855 252.8271 15.30208842 47029

JSON: /api/v1/satellites/65022 · /tle

For live sub-satellite position, see the globe view (requires WebGL).

§ Visibility from observer

Set your observer location to see the next 7 days of passes ≥ 10°. The values pass through the URL so the page stays shareable.

No JS? Fill the form by hand. The geolocation button needs JavaScript.